Stations météo

réclame
Mon MeteoGroup
Tholey, Allemagne (10706): Température de l'air & dewpoint: 21.04.2018 08:00:00 - 27.04.2018 08:00:00 (CEST)Tholey, Allemagne (10706): Température de l'air 5cm & Température de l'air -5cm: 21.04.2018 08:00:00 - 27.04.2018 08:00:00 (CEST)Tholey, Allemagne (10706): Température de l'air -20cm & Température de l'air -100cm: 21.04.2018 08:00:00 - 27.04.2018 08:00:00 (CEST)Tholey, Allemagne (10706): Vitesse du vent & gusts: 21.04.2018 08:00:00 - 27.04.2018 08:00:00 (CEST)Tholey, Allemagne (10706): Direction du vent: 21.04.2018 08:00:00 - 27.04.2018 08:00:00 (CEST)Tholey, Allemagne (10706): reduced air pressure: 21.04.2018 08:00:00 - 27.04.2018 08:00:00 (CEST)Tholey, Allemagne (10706): visibility: 21.04.2018 08:00:00 - 27.04.2018 08:00:00 (CEST)Tholey, Allemagne (10706): Ensoleillement: 21.04.2018 08:00:00 - 27.04.2018 08:00:00 (CEST)Tholey, Allemagne (10706): Quantités de précipitations: 21.04.2018 08:00:00 - 27.04.2018 08:00:00 (CEST)
Date & Time tt [°C] td [°C] tt 5cm [°C] tt -5cm [°C] tt -20cm [°C] tt -100cm [°C] ff [km/h] ff [knt] fx [km/h] fx [knt] dd ppp [hPa] vv [km] sd [min] rr [mm]
27.04.2018 08:00:00 5,9 2,5 6,8 7,3 11,5 11,3 11 6 14 8 ENE 1015,4 25 22 0,0
27.04.2018 07:00:00 3,8 2,1 2,9 7,0 11,7 11,3 9 5 11 6 ENE 1016,3 22 1 0,0
27.04.2018 06:00:00 5,1 2,0 1,8 7,2 11,8 11,3 8 4 11 6 ENE 1016,6 33 0 0,0
27.04.2018 05:00:00 5,5 2,1 2,2 7,7 12,0 11,3 9 5 10 6 ENE 1017,4 35 0 0,0
27.04.2018 04:00:00 5,8 2,3 4,0 7,9 12,2 11,3 9 5 13 7 NE 1017,9 36 0 0,0
27.04.2018 03:00:00 6,3 2,3 3,0 8,1 12,5 11,3 5 3 5 3 E 1018,1 44 0 0,0
27.04.2018 02:00:00 7,1 2,3 2,6 8,4 12,7 11,3 3 1 4 2 WNW 1018,7 58 0 0,0
27.04.2018 01:00:00 6,9 2,3 3,0 8,8 12,9 11,3 0 0 6 3 N 1019,0 53 0 0,0
27.04.2018 00:00:00 6,8 2,3 2,5 9,3 13,1 11,3 4 2 9 5 SW 1019,5 60 0 0,0
26.04.2018 23:00:00 8,0 2,1 3,2 10,1 13,3 11,3 5 3 9 5 WSW 1019,5 56 0 0,0
26.04.2018 22:00:00 8,5 2,0 5,0 11,1 13,5 11,3 8 4 11 6 W 1019,7 59 0 0,0
26.04.2018 21:00:00 9,1 1,9 6,7 12,3 13,5 11,3 11 6 32 17 W 1019,1 70 20 0,0
26.04.2018 20:00:00 11,3 1,6 11,4 13,5 13,5 11,3 17 9 35 19 W 1018,5 66 33 0,0
26.04.2018 19:00:00 12,3 0,6 12,8 14,5 13,4 11,3 17 9 34 18 W 1018,2 53 15 0,0
26.04.2018 18:00:00 12,5 1,2 15,9 15,4 13,2 11,3 21 12 39 21 WSW 1018,4 54 25 0,0
26.04.2018 17:00:00 11,7 0,5 13,4 16,1 13,0 11,3 24 13 38 21 W 1018,8 67 26 0,0
26.04.2018 16:00:00 11,7 0,9 16,4 15,7 12,8 11,3 22 12 40 21 W 1019,3 33 45 0,0
26.04.2018 15:00:00 11,2 2,3 15,1 14,6 12,6 11,3 21 11 37 20 W 1019,5 56 17 0,0
26.04.2018 14:00:00 10,6 1,3 14,7 14,4 12,4 11,3 28 15 43 23 WSW 1019,7 45 39 0,0
26.04.2018 13:00:00 9,5 1,6 12,8 12,8 12,3 11,3 24 13 44 24 W 1020,2 55 11 0,0
26.04.2018 12:00:00 8,5 2,5 10,1 12,5 12,2 11,3 27 14 43 23 W 1020,2 47 21 0,0
26.04.2018 11:00:00 7,7 3,1 8,8 11,8 12,2 11,3 23 12 39 21 W 1020,1 48 26 0,0
26.04.2018 10:00:00 7,4 3,9 9,2 10,4 12,3 11,3 23 13 34 19 W 1019,8 43 18 0,0
26.04.2018 09:00:00 6,6 4,5 7,9 9,5 12,4 11,3 22 12 32 18 W 1019,6 23 55 0,0
26.04.2018 08:00:00 5,4 4,1 5,8 8,0 12,6 11,3 13 7 28 15 W 1019,2 19 58 0,0
26.04.2018 07:00:00 4,6 3,6 3,7 7,5 12,8 11,3 14 8 22 12 W 1018,6 13 8 0,0
26.04.2018 06:00:00 4,0 3,7 3,1 7,9 13,1 11,3 17 9 21 12 W 1018,3 10 0 0,0
26.04.2018 05:00:00 4,5 4,4 3,4 8,4 13,3 11,2 13 7 16 9 W 1018,1 6 0 0,0
26.04.2018 04:00:00 5,1 5,0 4,0 8,8 13,6 11,2 11 6 15 8 W 1017,5 1,7 0 0,0
26.04.2018 03:00:00 6,2 5,2 4,4 9,4 13,8 11,2 9 5 21 11 W 1017,2 20 0 0,0
26.04.2018 02:00:00 7,4 5,6 5,7 10,0 14,0 11,2 12 6 18 10 W 1017,1 36 0 0,0
26.04.2018 01:00:00 8,0 6,7 6,6 10,6 14,2 11,2 13 7 27 14 W 1016,8 20 0 0,0
26.04.2018 00:00:00 8,7 8,0 7,5 11,3 14,4 11,2 16 8 26 14 W 1016,2 15 0 0,0
25.04.2018 23:00:00 9,0 8,8 8,2 12,0 14,6 11,2 15 8 24 13 W 1016,0 4,4 0 0,0
25.04.2018 22:00:00 9,5 9,4 9,1 12,7 14,7 11,2 14 8 23 12 W 1015,4 2,5 0 0,0
25.04.2018 21:00:00 10,0 9,6 9,8 13,2 14,9 11,2 14 8 22 12 WSW 1014,8 9 0 0,2
25.04.2018 20:00:00 10,3 9,3 10,1 13,7 15,0 11,2 12 7 31 17 W 1014,3 31 0 0,0
25.04.2018 19:00:00 10,8 9,5 10,6 14,3 15,0 11,2 18 10 34 18 W 1014,1 27 0 1,0
25.04.2018 18:00:00 11,0 9,6 10,5 15,4 15,0 11,2 22 12 42 23 WNW 1013,9 4,2 0 0,4
25.04.2018 17:00:00 11,9 8,5 11,3 17,3 14,8 11,2 27 14 54 29 WNW 1013,6 23 19 0,5
25.04.2018 16:00:00 15,6 8,6 20,3 17,1 14,7 11,2 32 18 54 29 WSW 1013,3 35 24 0,0
25.04.2018 15:00:00 14,2 8,5 17,2 16,4 14,6 11,2 31 17 49 26 WSW 1013,8 35 7 0,0
25.04.2018 14:00:00 13,8 8,5 15,4 15,7 14,5 11,1 24 13 49 27 W 1013,8 31 2 0,0
25.04.2018 13:00:00 13,4 8,5 14,2 15,6 14,4 11,1 28 15 51 28 WSW 1013,6 23 5 0,0
25.04.2018 12:00:00 13,7 9,0 17,3 14,9 14,4 11,1 26 14 42 23 WSW 1013,6 18 14 0,0
25.04.2018 11:00:00 13,0 9,2 16,1 14,1 14,4 11,1 27 15 40 21 WSW 1013,5 12 4 0,0
25.04.2018 10:00:00 11,8 8,7 12,7 13,7 14,4 11,1 25 14 36 19 WSW 1013,1 13 2 0,0
25.04.2018 09:00:00 11,6 8,5 13,5 13,0 14,5 11,1 19 11 28 15 WSW 1013,0 17 33 0,0
25.04.2018 08:00:00 9,9 7,7 10,8 11,9 14,7 11,1 13 7 18 10 W 1012,9 13 40 0,0
25.04.2018 07:00:00 9,5 7,5 9,0 11,7 14,9 11,1 10 5 16 8 W 1012,7 18 0 0,0
25.04.2018 06:00:00 9,8 7,6 9,4 11,7 15,1 11,1 13 7 17 9 W 1012,6 20 0 0,0
25.04.2018 05:00:00 10,6 7,5 8,3 11,6 15,3 11,1 9 5 14 8 WSW 1012,2 23 0 0,0
25.04.2018 04:00:00 10,3 7,2 6,6 12,1 15,6 11,1 7 4 13 7 WSW 1012,7 27 0 0,0
25.04.2018 03:00:00 11,0 7,2 7,4 12,5 15,8 11,1 7 4 10 5 W 1013,1 31 0 0,0
25.04.2018 02:00:00 11,8 7,1 8,5 13,1 16,1 11,0 9 5 12 6 W 1013,6 35 0 0,0
25.04.2018 01:00:00 12,2 7,0 9,2 13,7 16,3 11,0 10 5 11 6 W 1013,9 44 0 0,0
25.04.2018 00:00:00 12,4 6,9 9,2 14,4 16,5 11,0 9 5 10 5 WSW 1014,2 51 0 0,0
24.04.2018 23:00:00 13,3 6,8 10,4 15,2 16,7 11,0 9 5 12 7 W 1014,6 55 0 0,0
24.04.2018 22:00:00 14,6 6,5 12,2 16,2 16,8 11,0 11 6 13 7 W 1014,7 66 0 0,0
24.04.2018 21:00:00 14,8 6,8 12,5 17,5 16,9 11,0 10 5 18 10 WSW 1014,8 56 0 0,0
24.04.2018 20:00:00 16,6 6,4 15,7 18,9 16,8 11,0 14 8 29 16 WSW 1014,7 65 15 0,0
24.04.2018 19:00:00 17,3 6,2 17,7 20,3 16,7 11,0 21 11 34 18 W 1015,2 70 60 0,0
24.04.2018 18:00:00 17,5 5,8 19,7 21,5 16,4 11,0 18 10 34 18 WSW 1015,6 54 60 0,0
24.04.2018 17:00:00 17,7 5,2 21,0 22,6 16,1 10,9 24 13 37 20 WSW 1016,0 28 60 0,0
24.04.2018 16:00:00 17,6 5,9 22,8 22,6 15,7 10,9 19 10 31 17 WSW 1017,0 23 60 0,0
24.04.2018 15:00:00 17,0 6,1 22,9 21,8 15,3 10,9 19 11 33 18 WSW 1017,7 27 60 0,0
24.04.2018 14:00:00 15,6 6,2 21,6 20,6 15,0 10,9 23 12 33 18 WSW 1018,7 30 60 0,0
24.04.2018 13:00:00 14,8 6,5 21,3 19,3 14,8 10,9 22 12 36 20 WSW 1019,2 22 60 0,0
24.04.2018 12:00:00 13,5 7,0 18,8 17,2 14,6 10,9 24 13 34 19 WSW 1019,7 24 60 0,0
24.04.2018 11:00:00 12,2 6,9 16,5 15,5 14,6 10,9 21 12 29 16 WSW 1019,9 22 60 0,0
24.04.2018 10:00:00 10,4 6,4 13,2 13,4 14,6 10,8 17 9 30 16 W 1020,2 22 9 0,0
24.04.2018 09:00:00 9,1 8,0 10,8 12,4 14,8 10,8 11 6 15 8 W 1020,1 9 9 0,0
24.04.2018 08:00:00 8,2 7,7 8,8 11,3 15,0 10,8 10 5 13 7 W 1019,8 4,7 32 0,0
24.04.2018 07:00:00 7,3 7,2 5,5 10,8 15,3 10,8 6 4 11 6 WSW 1019,5 2,6 0 0,0
24.04.2018 06:00:00 8,0 7,5 6,5 11,2 15,5 10,8 10 6 13 7 W 1019,7 6 0 0,0
24.04.2018 05:00:00 8,7 7,7 6,7 11,7 15,8 10,8 8 4 10 6 W 1019,6 12 0 0,0
24.04.2018 04:00:00 9,1 7,7 8,0 11,8 16,0 10,8 8 5 11 6 W 1019,6 17 0 0,0
24.04.2018 03:00:00 9,4 7,5 7,1 12,2 16,3 10,7 9 5 11 6 W 1019,5 24 0 0,0
24.04.2018 02:00:00 10,0 7,6 6,7 12,8 16,6 10,7 7 4 9 5 W 1019,3 31 0 0,0
24.04.2018 01:00:00 10,2 7,8 6,1 13,5 16,9 10,7 6 4 9 5 WSW 1019,4 33 0 0,0
24.04.2018 00:00:00 10,8 7,9 8,0 14,3 17,2 10,7 9 5 13 7 W 1019,1 32 0 0,0
23.04.2018 23:00:00 12,0 7,9 10,0 15,1 17,4 10,7 13 7 16 9 W 1018,7 40 0 0,0
23.04.2018 22:00:00 13,4 8,1 10,6 16,2 17,6 10,7 9 5 23 13 WSW 1018,3 41 0 0,0
23.04.2018 21:00:00 14,4 8,3 12,7 17,6 17,7 10,6 15 8 39 21 W 1017,5 47 7 0,0
23.04.2018 20:00:00 15,4 8,9 14,9 19,2 17,7 10,6 25 14 42 23 W 1016,7 35 22 0,0
23.04.2018 19:00:00 16,8 9,2 17,2 20,4 17,7 10,6 23 13 41 22 W 1016,3 41 27 0,0
23.04.2018 18:00:00 17,9 9,5 18,7 21,4 17,5 10,6 22 12 43 23 W 1015,6 43 39 0,0
23.04.2018 17:00:00 18,3 9,9 19,7 22,4 17,4 10,6 25 14 40 22 W 1015,4 36 51 0,0
23.04.2018 16:00:00 18,4 9,9 20,9 22,1 17,2 10,6 24 13 44 24 W 1015,4 34 45 0,0
23.04.2018 15:00:00 19,1 10,1 23,1 21,6 17,0 10,5 31 17 44 24 W 1015,6 26 25 0,0
23.04.2018 14:00:00 19,0 11,1 22,0 21,5 16,7 10,5 19 10 34 18 WSW 1015,6 21 18 0,0
23.04.2018 13:00:00 19,1 11,8 24,6 21,1 16,5 10,5 20 11 30 16 WSW 1015,8 23 36 0,0
23.04.2018 12:00:00 17,8 11,7 21,1 20,8 16,4 10,5 18 10 26 14 SW 1016,0 23 48 0,0
23.04.2018 11:00:00 16,9 12,1 20,8 18,8 16,4 10,5 16 9 22 12 WSW 1016,0 15 51 0,0
23.04.2018 10:00:00 15,7 12,8 18,7 16,8 16,5 10,4 14 8 21 11 WSW 1015,8 17 44 0,0
23.04.2018 09:00:00 13,8 12,2 14,0 15,7 16,6 10,4 7 4 11 6 W 1015,8 13 11 0,0
23.04.2018 08:00:00 13,8 11,4 13,1 15,3 16,7 10,4 6 3 10 5 W 1015,2 20 2 0,0
23.04.2018 07:00:00 14,1 11,2 12,5 15,3 16,9 10,4 8 5 20 11 WSW 1015,1 21 0 0,2
23.04.2018 06:00:00 15,3 10,2 13,8 15,4 17,1 10,4 6 4 10 6 W 1014,1 30 0 0,0
23.04.2018 05:00:00 15,3 9,8 14,2 15,6 17,3 10,4 9 5 12 7 W 1014,3 32 0 0,0
23.04.2018 04:00:00 15,7 9,6 14,3 15,9 17,5 10,3 10 5 13 7 WSW 1014,3 33 0 0,0
23.04.2018 03:00:00 16,9 9,3 14,2 16,1 17,7 10,3 6 4 9 5 W 1014,0 31 0 0,0
23.04.2018 02:00:00 17,2 9,3 13,4 16,4 18,0 10,3 5 3 10 5 WSW 1013,9 39 0 0,0
23.04.2018 01:00:00 17,7 9,7 13,6 16,9 18,2 10,3 7 4 11 6 WSW 1014,1 40 0 0,0
23.04.2018 00:00:00 17,7 9,7 14,0 17,6 18,5 10,3 7 4 14 7 W 1014,0 42 0 0,0
22.04.2018 23:00:00 18,3 9,7 15,7 18,4 18,7 10,3 10 6 18 10 WSW 1013,4 44 0 0,0
22.04.2018 22:00:00 18,8 9,8 16,5 19,4 18,8 10,2 12 6 15 8 WSW 1013,0 46 0 0,0
22.04.2018 21:00:00 19,9 9,8 17,4 20,6 18,9 10,2 11 6 16 9 WSW 1012,6 50 0 0,0
22.04.2018 20:00:00 21,6 9,5 20,0 22,1 18,9 10,2 14 8 27 14 W 1011,9 47 1 0,0
22.04.2018 19:00:00 22,8 8,9 22,5 23,3 18,8 10,2 21 12 40 22 W 1011,5 48 16 0,0
22.04.2018 18:00:00 24,1 9,1 25,3 24,7 18,6 10,2 27 14 41 22 W 1011,1 50 49 0,0
22.04.2018 17:00:00 24,2 9,4 25,4 25,8 18,3 10,1 29 15 48 26 WSW 1011,3 41 56 0,0
22.04.2018 16:00:00 24,6 10,4 28,7 26,5 17,9 10,1 24 13 34 19 W 1011,6 35 52 0,0
22.04.2018 15:00:00 24,6 11,4 29,9 26,8 17,5 10,1 22 12 36 19 WSW 1012,3 28 60 0,0
22.04.2018 14:00:00 25,2 10,5 30,2 26,5 17,0 10,1 18 10 28 15 S 1012,5 26 60 0,0
22.04.2018 13:00:00 24,3 9,5 29,4 25,4 16,6 10,1 16 8 22 12 SW 1013,0 34 60 0,0
22.04.2018 12:00:00 22,6 10,5 27,7 23,5 16,3 10,1 9 5 22 12 SSW 1014,0 37 60 0,0
22.04.2018 11:00:00 21,2 11,0 25,1 21,1 16,2 10,0 6 3 12 6 SSE 1014,4 30 60 0,0
22.04.2018 10:00:00 19,7 11,2 23,3 18,3 16,2 10,0 5 3 11 6 SE 1014,9 19 60 0,0
22.04.2018 09:00:00 17,4 11,4 20,4 16,0 16,4 10,0 8 4 11 6 ENE 1015,0 14 60 0,0
22.04.2018 08:00:00 15,1 10,3 15,6 14,6 16,6 10,0 9 5 14 8 ENE 1015,4 15 58 0,0
22.04.2018 07:00:00 14,3 9,7 11,3 14,2 16,8 10,0 11 6 13 7 ENE 1015,4 13 0 0,0
22.04.2018 06:00:00 13,9 9,7 9,9 14,7 17,1 9,9 9 5 15 8 ENE 1015,4 16 0 0,0
22.04.2018 05:00:00 14,3 9,6 10,9 15,3 17,3 9,9 8 5 16 9 ENE 1015,6 16 0 0,0
22.04.2018 04:00:00 15,9 9,9 12,5 15,8 17,6 9,9 10 6 13 7 ENE 1015,9 20 0 0,0
22.04.2018 03:00:00 17,4 10,1 13,2 16,4 17,8 9,9 10 5 12 6 ENE 1016,1 20 0 0,0
22.04.2018 02:00:00 17,9 10,4 14,2 17,0 18,1 9,9 11 6 19 10 NE 1016,5 21 0 0,0
22.04.2018 01:00:00 18,4 10,6 15,9 17,7 18,3 9,9 14 8 21 11 NE 1016,9 22 0 0,0
22.04.2018 00:00:00 18,9 10,8 16,2 18,4 18,5 9,8 16 9 22 12 NE 1016,9 22 0 0,0
21.04.2018 23:00:00 19,7 10,9 16,8 19,3 18,7 9,8 15 8 19 10 NE 1016,7 23 0 0,0
21.04.2018 22:00:00 20,6 10,8 17,2 20,4 18,9 9,8 12 7 16 9 NE 1016,6 24 0 0,0
21.04.2018 21:00:00 21,7 10,4 18,2 21,9 18,9 9,8 10 5 20 11 ENE 1016,4 29 4 0,0
21.04.2018 20:00:00 23,8 5,7 22,3 23,7 18,8 9,8 3 2 12 7 SE 1015,8 60 57 0,0
21.04.2018 19:00:00 25,1 6,5 26,5 25,2 18,6 9,8 7 4 12 7 S 1015,8 38 60 0,0
21.04.2018 18:00:00 25,6 7,0 28,3 26,4 18,2 9,7 4 2 16 9 WSW 1016,1 38 42 0,0
21.04.2018 17:00:00 25,7 7,2 30,1 27,8 17,8 9,7 9 5 16 9 WSW 1016,6 26 60 0,0
21.04.2018 16:00:00 25,1 7,4 32,5 27,6 17,3 9,7 4 2 22 12 E 1017,4 33 52 0,0
21.04.2018 15:00:00 25,5 6,3 29,9 27,0 16,9 9,7 8 5 17 9 S 1017,8 23 48 0,0
21.04.2018 14:00:00 24,1 8,4 30,9 26,8 16,4 9,7 6 3 15 8 E 1018,6 35 60 0,0
21.04.2018 13:00:00 24,3 9,5 29,2 24,8 16,0 9,6 9 5 18 10 ESE 1019,1 21 59 0,0
21.04.2018 12:00:00 23,1 11,3 28,0 22,5 15,7 9,6 8 4 18 10 ENE 1019,7 16 48 0,0
21.04.2018 11:00:00 23,0 11,7 29,0 20,9 15,6 9,6 9 5 17 9 E 1019,8 16 60 0,0
21.04.2018 10:00:00 21,2 11,3 25,0 18,2 15,6 9,6 10 5 18 10 E 1019,9 14 60 0,0
21.04.2018 09:00:00 19,1 10,8 21,5 15,9 15,7 9,6 9 5 18 10 ENE 1020,1 15 60 0,0
21.04.2018 08:00:00 16,8 10,5 16,6 14,5 15,9 9,6 14 8 21 11 NE 1020,4 10 42 0,0

tt = Température de l'air
td = dewpoint
tt 5cm = Température de l'air 5cm
tt -5cm = Température de l'air -5cm
tt -20cm = Température de l'air -20cm
tt -100cm = Température de l'air -100cm
ff = Vitesse du vent
fx = gusts
dd = Direction du vent
ppp = reduced air pressure
vv = visibility
sd = Ensoleillement
rr = Quantités de précipitations

stations d'obs. à proximité